P/2025 A2 ( PanSTARRS )

Japanese version
Home page
Updated on January 13, 2025

---------------------------------------------------------------------

* Profile

Discovery Date January 7, 2025
Magnitude 21.0 mag
Discoverer Pan-STARRS 1 telescope (Haleakala)

* Orbital Elements

Epoch 2024 Oct. 17.0 TT = JDT 2460600.5                                         
T 2024 Oct. 5.97768 TT                                  Veres                   
q   3.4465769            (2000.0)            P               Q                  
n   0.08591179     Peri.  278.09310     -0.28898556     -0.95561267             
a   5.0866776      Node   189.32705     +0.95677119     -0.28624296             
e   0.3224306      Incl.   20.73269     +0.03280606     -0.06978110             
P  11.5                                                                         
From 30 observations 2024 Nov. 27-2025 Jan. 9, mean residual 0".2.              

* Magnitudes Graph

        m1 = 13.5 + 5 log d + 10.0 log r

---------------------------------------------------------------------

The orbital elements are published on M.P.E.C. 2025-A162.
The magnitudes graphs are made with Comet for Windows.

---------------------------------------------------------------------

Copyright(C) Seiichi Yoshida (comet@aerith.net). All rights reserved.